W9SIG Weather Reports


Display with metric or nautical units.
time (UTC)temp
F
wind
direction
speed
MPH
gust
MPH
rain 1hr
in
rain 24hr
in
rain mn
in
humidity
%
barometer
mb
20260906044120 76 351 1.0 4.0 0.00 0.00 0.00 1 1014.9
20260906043620 76 40 2.0 8.0 0.00 0.00 0.00 1 1014.7
20260906043120 76 40 3.0 8.0 0.00 0.00 0.00 1 1014.7
20260906042620 76 39 2.0 7.0 0.00 0.00 0.00 1 1014.7
20260906042120 76 49 2.0 6.0 0.00 0.00 0.00 1 1014.7
20260906041620 76 5 2.0 7.0 0.00 0.00 0.00 1 1014.7
20260906041120 76 50 3.0 7.0 0.00 0.00 0.00 1 1014.7
20260906040619 76 343 2.0 6.0 0.00 0.00 0.00 1 1014.8
20260906040118 76 331 2.0 6.0 0.00 0.00 0.00 1 1014.8
20260906035618 76 355 2.0 8.0 0.00 0.00 0.00 1 1014.7
20260906035118 76 348 3.0 8.0 0.00 0.00 0.00 1 1014.7
20260906034615 77 344 2.0 7.0 0.00 0.00 0.00 1 1014.7
20260906034115 77 28 3.0 11.0 0.00 0.00 0.00 1 1014.7
20260906033613 77 17 4.0 11.0 0.00 0.00 0.00 1 1014.7
20260906033114 77 70 3.0 9.0 0.00 0.00 0.00 1 1014.7
20260906032613 77 46 4.0 9.0 0.00 0.00 0.00 1 1014.6
20260906032114 78 5 4.0 9.0 0.00 0.00 0.00 1 1014.7
20260906031614 78 5 2.0 9.0 0.00 0.00 0.00 1 1014.6
20260906031114 78 118 3.0 7.0 0.00 0.00 0.00 1 1014.7
20260906030614 78 328 2.0 7.0 0.00 0.00 0.00 1 1014.6
20260906030120 79 351 3.0 8.0 0.00 0.00 0.00 1 1014.6
20260906030114 79 38 2.0 4.0 0.00 0.00 0.00 1 1014.7
20260906025614 79 5 3.0 8.0 0.00 0.00 0.00 1 1014.7
20260906024615 79 22 3.0 8.0 0.00 0.00 0.00 1 1014.5
20260906024115 79 15 3.0 9.0 0.00 0.00 0.00 1 1014.5
20260906023614 80 19 3.0 9.0 0.00 0.00 0.00 1 1014.5
20260906023114 80 342 4.0 9.0 0.00 0.00 0.00 1 1014.4
20260906022614 80 14 4.0 8.0 0.00 0.00 0.00 1 1014.3
20260906022119 80 327 4.0 8.0 0.00 0.00 0.00 1 1014.1
20260906022114 80 344 4.0 9.0 0.00 0.00 0.00 1 1014.3
20260906021614 80 355 3.0 9.0 0.00 0.00 0.00 1 1014.2
20260906020614 81 15 5.0 12.0 0.00 0.00 0.00 1 1014.1
20260906020115 81 18 3.0 12.0 0.00 0.00 0.00 1 1014.1
20260906015619 81 15 3.0 10.0 0.00 0.00 0.00 1 1014.0
20260906015615 81 19 2.0 5.0 0.00 0.00 0.00 1 1014.1
20260906014615 81 355 3.0 11.0 0.00 0.00 0.00 1 1013.9
20260906014115 82 5 3.0 11.0 0.00 0.00 0.00 1 1013.7
20260906013615 82 25 4.0 9.0 0.00 0.00 0.00 1 1013.6
20260906013119 82 0 3.0 12.0 0.00 0.00 0.00 1 1013.6
20260906013115 82 339 4.0 12.0 0.00 0.00 0.00 1 1013.6
20260906012114 82 355 3.0 10.0 0.00 0.00 0.00 1 1013.6
20260906011614 82 355 3.0 11.0 0.00 0.00 0.00 1 1013.6
20260906011114 83 5 4.0 11.0 0.00 0.00 0.00 1 1013.5
20260906010615 83 355 4.0 11.0 0.00 0.00 0.00 1 1013.4
20260906010119 83 5 4.0 9.0 0.00 0.00 0.00 1 1013.1
20260906010114 83 282 3.0 9.0 0.00 0.00 0.00 1 1013.3
20260906005719 83 5 3.0 9.0 0.00 0.00 0.00 1 1013.0
20260906004613 83 35 3.0 8.0 0.00 0.00 0.00 1 1012.9
20260906004113 84 49 2.0 8.0 0.00 0.00 0.00 1 1012.9
20260906003613 84 5 2.0 6.0 0.00 0.00 0.00 1 1012.9
20260906003116 84 24 1.0 2.0 0.00 0.00 0.00 1 1012.9
20260906003112 84 18 1.0 6.0 0.00 0.00 0.00 1 1012.9
20260906002111 85 20 0.0 2.0 0.00 0.00 0.00 1 1013.0
20260906001611 85 20 0.0 1.0 0.00 0.00 0.00 1 1012.9
20260906001116 86 20 0.0 0.0 0.00 0.00 0.00 1 1012.9
20260906001111 85 20 0.0 1.0 0.00 0.00 0.00 1 1012.9
20260906000611 86 20 0.0 0.0 0.00 0.00 0.00 1 1012.9
20260905235611 87 20 0.0 0.0 0.00 0.00 0.00 1 1012.8
20260905235112 88 20 0.0 1.0 0.00 0.00 0.00 1 1012.9
20260905235108 88 20 0.0 1.0 0.00 0.00 0.00 1 1012.8
20260905234107 89 20 0.0 0.0 0.00 0.00 0.00 1 1012.8
20260905233607 89 20 0.0 0.0 0.00 0.00 0.00 1 1012.8
20260905233107 90 20 0.0 1.0 0.00 0.00 0.00 1 1012.8
20260905232607 91 20 0.0 1.0 0.00 0.00 0.00 1 1012.7
20260905232107 91 20 0.0 1.0 0.00 0.00 0.00 4 1012.7
20260905231613 92 20 0.0 2.0 0.00 0.00 0.00 25 1012.5
20260905231609 91 20 0.0 2.0 0.00 0.00 0.00 18 1012.6
20260905230607 92 19 0.0 1.0 0.00 0.00 0.00 26 1012.5
20260905230107 93 19 0.0 1.0 0.00 0.00 0.00 36 1012.5
20260905225605 93 19 0.0 1.0 0.00 0.00 0.00 40 1012.4
20260905225105 94 19 1.0 3.0 0.00 0.00 0.00 42 1012.4
20260905224605 94 19 1.0 3.0 0.00 0.00 0.00 42 1012.5
20260905224105 94 19 1.0 2.0 0.00 0.00 0.00 38 1012.5
20260905223605 94 19 1.0 3.0 0.00 0.00 0.00 35 1012.4
20260905223105 94 19 0.0 3.0 0.00 0.00 0.00 27 1012.4
20260905222605 94 13 0.0 1.0 0.00 0.00 0.00 22 1012.3
20260905222104 94 13 0.0 2.0 0.00 0.00 0.00 29 1012.3
20260905221605 94 13 1.0 4.0 0.00 0.00 0.00 33 1012.4
20260905221108 94 13 1.0 4.0 0.00 0.00 0.00 37 1012.6
20260905221104 94 0 1.0 4.0 0.00 0.00 0.00 29 1012.6
20260905220708 94 5 1.0 4.0 0.00 0.00 0.00 45 1012.5
20260905215603 94 5 1.0 3.0 0.00 0.00 0.00 42 1012.6
20260905214603 94 5 1.0 5.0 0.00 0.00 0.00 47 1012.5
20260905214103 94 0 1.0 5.0 0.00 0.00 0.00 46 1012.6
20260905213603 94 42 1.0 3.0 0.00 0.00 0.00 47 1012.6
20260905213103 94 45 1.0 5.0 0.00 0.00 0.00 36 1012.7
20260905212605 94 74 1.0 5.0 0.00 0.00 0.00 39 1012.5
20260905212600 94 49 1.0 3.0 0.00 0.00 0.00 44 1012.5
20260905211559 94 26 1.0 2.0 0.00 0.00 0.00 44 1012.7
20260905211103 94 26 0.0 3.0 0.00 0.00 0.00 42 1012.7
20260905211059 94 26 0.0 3.0 0.00 0.00 0.00 41 1012.7
20260905210059 94 11 0.0 1.0 0.00 0.00 0.00 34 1012.7
20260905205559 94 11 0.0 2.0 0.00 0.00 0.00 41 1012.8
20260905205059 94 11 0.0 2.0 0.00 0.00 0.00 18 1012.7
20260905204559 93 11 1.0 5.0 0.00 0.00 0.00 30 1012.8
20260905204058 93 11 2.0 5.0 0.00 0.00 0.00 41 1013.0
20260905203558 93 98 1.0 3.0 0.00 0.00 0.00 29 1013.0
20260905203057 93 99 0.0 2.0 0.00 0.00 0.00 18 1013.1
20260905202557 94 99 0.0 2.0 0.00 0.00 0.00 33 1013.0
20260905202101 94 99 1.0 3.0 0.00 0.00 0.00 43 1013.4
20260905202057 94 99 0.0 3.0 0.00 0.00 0.00 36 1013.1
20260905201057 95 50 1.0 4.0 0.00 0.00 0.00 49 1013.4
20260905200555 95 51 1.0 4.0 0.00 0.00 0.00 50 1013.4
20260905200053 95 355 1.0 4.0 0.00 0.00 0.00 46 1013.4
20260905195553 95 355 1.0 4.0 0.00 0.00 0.00 51 1013.4
20260905195053 96 49 1.0 3.0 0.00 0.00 0.00 49 1013.5
20260905194553 96 25 2.0 4.0 0.00 0.00 0.00 49 1013.5
20260905194053 95 26 2.0 5.0 0.00 0.00 0.00 51 1013.5
20260905193551 96 332 2.0 5.0 0.00 0.00 0.00 51 1013.5
20260905193051 96 28 2.0 4.0 0.00 0.00 0.00 51 1013.5
20260905192551 96 82 1.0 3.0 0.00 0.00 0.00 48 1013.6
20260905192054 96 42 1.0 4.0 0.00 0.00 0.00 47 1013.7
20260905192050 96 14 1.0 4.0 0.00 0.00 0.00 51 1013.7
20260905191055 95 63 1.0 5.0 0.00 0.00 0.00 51 1013.8
20260905191051 95 31 1.0 5.0 0.00 0.00 0.00 51 1013.7
20260905190050 95 42 1.0 3.0 0.00 0.00 0.00 50 1013.9
20260905185550 95 13 2.0 4.0 0.00 0.00 0.00 48 1014.1
20260905185050 95 221 2.0 5.0 0.00 0.00 0.00 50 1014.1
20260905184550 95 30 1.0 5.0 0.00 0.00 0.00 49 1014.2
20260905184051 95 251 1.0 5.0 0.00 0.00 0.00 49 1014.2
20260905183551 94 54 2.0 4.0 0.00 0.00 0.00 51 1014.3
20260905183051 94 311 2.0 5.0 0.00 0.00 0.00 45 1014.3
20260905182551 94 236 2.0 5.0 0.00 0.00 0.00 49 1014.4
20260905182051 94 218 2.0 5.0 0.00 0.00 0.00 50 1014.5
20260905181551 94 199 2.0 4.0 0.00 0.00 0.00 49 1014.5
20260905181051 94 313 1.0 4.0 0.00 0.00 0.00 48 1014.6
20260905180551 94 154 1.0 4.0 0.00 0.00 0.00 44 1014.7
20260905180050 94 161 1.0 4.0 0.00 0.00 0.00 48 1014.7
20260905175551 93 135 1.0 5.0 0.00 0.00 0.00 37 1014.7
20260905175051 93 220 1.0 5.0 0.00 0.00 0.00 39 1014.8
20260905174555 92 130 1.0 4.0 0.00 0.00 0.00 24 1014.8
20260905174551 93 164 1.0 2.0 0.00 0.00 0.00 39 1014.9
20260905173550 92 276 2.0 4.0 0.00 0.00 0.00 33 1014.8
20260905173050 92 254 2.0 3.0 0.00 0.00 0.00 44 1014.8
20260905172556 91 115 2.0 8.0 0.00 0.00 0.00 35 1015.0
20260905172551 92 265 1.0 4.0 0.00 0.00 0.00 42 1014.9
20260905172050 91 208 2.0 8.0 0.00 0.00 0.00 41 1015.0
20260905171054 91 109 2.0 7.0 0.00 0.00 0.00 46 1015.1
20260905171050 91 109 2.0 8.0 0.00 0.00 0.00 44 1015.1
20260905170054 90 150 2.0 5.0 0.00 0.00 0.00 32 1015.0
20260905170050 91 279 2.0 5.0 0.00 0.00 0.00 36 1015.0
20260905165050 90 146 2.0 4.0 0.00 0.00 0.00 40 1015.0
20260905164550 90 263 2.0 5.0 0.00 0.00 0.00 34 1015.0
20260905164054 89 161 1.0 5.0 0.00 0.00 0.00 37 1015.2
20260905164050 90 171 2.0 5.0 0.00 0.00 0.00 26 1015.2
20260905163050 89 158 2.0 5.0 0.00 0.00 0.00 31 1015.3
20260905162550 89 171 2.0 5.0 0.00 0.00 0.00 36 1015.4
20260905162048 88 350 2.0 4.0 0.00 0.00 0.00 36 1015.4
20260905161548 88 190 2.0 6.0 0.00 0.00 0.00 28 1015.5
20260905161048 87 209 2.0 6.0 0.00 0.00 0.00 38 1015.5
20260905160547 87 165 2.0 7.0 0.00 0.00 0.00 33 1015.5
20260905160048 87 262 2.0 7.0 0.00 0.00 0.00 30 1015.5
20260905155548 86 217 1.0 4.0 0.00 0.00 0.00 12 1015.5
20260905155048 86 286 2.0 7.0 0.00 0.00 0.00 15 1015.5
20260905154548 85 300 2.0 7.0 0.00 0.00 0.00 29 1015.3
20260905154048 85 280 3.0 7.0 0.00 0.00 0.00 22 1015.4
20260905153547 85 202 2.0 7.0 0.00 0.00 0.00 16 1015.5
20260905153046 84 326 1.0 7.0 0.00 0.00 0.00 7 1015.6
20260905152546 84 111 1.0 5.0 0.00 0.00 0.00 4 1015.7
20260905152046 83 89 1.0 7.0 0.00 0.00 0.00 12 1015.9
20260905151547 83 259 1.0 7.0 0.00 0.00 0.00 1 1015.9
20260905151047 82 331 2.0 7.0 0.00 0.00 0.00 1 1015.8
20260905150546 82 166 2.0 7.0 0.00 0.00 0.00 1 1015.8
20260905150046 81 179 2.0 8.0 0.00 0.00 0.00 1 1015.8
20260905145546 80 115 2.0 8.0 0.00 0.00 0.00 1 1015.8
20260905145046 80 130 2.0 7.0 0.00 0.00 0.00 1 1015.7
20260905144546 79 294 2.0 7.0 0.00 0.00 0.00 1 1015.8
20260905144045 78 9 2.0 7.0 0.00 0.00 0.00 1 1015.7
20260905143546 78 355 2.0 7.0 0.00 0.00 0.00 1 1015.8
20260905143046 78 269 2.0 6.0 0.00 0.00 0.00 1 1015.7
20260905142546 77 110 3.0 6.0 0.00 0.00 0.00 1 1015.8
20260905142044 77 350 2.0 8.0 0.00 0.00 0.00 1 1016.0
20260905141544 77 17 2.0 8.0 0.00 0.00 0.00 1 1016.0
20260905141044 77 215 2.0 8.0 0.00 0.00 0.00 1 1016.0
20260905140544 76 34 3.0 10.0 0.00 0.00 0.00 1 1016.1
20260905140041 76 9 2.0 10.0 0.00 0.00 0.00 1 1016.1
20260905135545 76 238 2.0 8.0 0.00 0.00 0.00 1 1016.0
20260905135541 76 284 1.0 6.0 0.00 0.00 0.00 1 1016.0
20260905134545 76 135 2.0 8.0 0.00 0.00 0.00 1 1015.9
20260905134541 76 20 2.0 8.0 0.00 0.00 0.00 1 1016.0
20260905133541 76 355 3.0 8.0 0.00 0.00 0.00 1 1015.9
20260905133041 76 320 2.0 8.0 0.00 0.00 0.00 1 1016.0
20260905132541 76 12 2.0 7.0 0.00 0.00 0.00 1 1015.9
20260905132042 76 39 2.0 7.0 0.00 0.00 0.00 1 1015.8
20260905131542 76 22 3.0 12.0 0.00 0.00 0.00 1 1015.7
20260905131044 76 350 4.0 13.0 0.00 0.00 0.00 1 1015.6
20260905131040 76 77 4.0 13.0 0.00 0.00 0.00 1 1015.7
20260905130039 76 89 3.0 9.0 0.00 0.00 0.00 1 1015.8
20260905125540 75 15 4.0 9.0 0.00 0.00 0.00 1 1015.8
20260905125043 74 89 0.0 3.0 0.00 0.00 0.00 1 1015.6
20260905125039 75 349 2.0 9.0 0.00 0.00 0.00 1 1015.7
20260905124039 74 169 0.0 0.0 0.00 0.00 0.00 1 1015.2
20260905123539 74 169 0.0 0.0 0.00 0.00 0.00 1 1015.1
20260905123039 74 169 0.0 0.0 0.00 0.00 0.00 1 1015.1
20260905122539 74 169 0.0 0.0 0.00 0.00 0.00 1 1015.0
20260905122039 74 169 0.0 0.0 0.00 0.00 0.00 1 1015.1
20260905121543 74 169 0.0 1.0 0.00 0.00 0.00 1 1015.0
20260905121539 74 169 0.0 1.0 0.00 0.00 0.00 1 1015.0
20260905120539 74 169 0.0 0.0 0.00 0.00 0.00 1 1014.8
20260905120043 74 169 0.0 2.0 0.00 0.00 0.00 1 1014.9
20260905120039 74 169 0.0 1.0 0.00 0.00 0.00 1 1014.8
20260905115039 74 169 1.0 2.0 0.00 0.00 0.00 1 1014.8
20260905114539 74 169 0.0 2.0 0.00 0.00 0.00 1 1014.9
20260905114039 74 169 0.0 2.0 0.00 0.00 0.00 1 1015.0
20260905113539 74 169 0.0 2.0 0.00 0.00 0.00 1 1015.0
20260905113043 74 169 0.0 0.0 0.00 0.00 0.00 1 1014.8
20260905113039 74 169 0.0 0.0 0.00 0.00 0.00 1 1015.0
20260905112037 74 169 0.0 1.0 0.00 0.00 0.00 1 1014.9
20260905111537 74 169 0.0 1.0 0.00 0.00 0.00 1 1014.7
20260905111037 74 169 0.0 0.0 0.00 0.00 0.00 1 1014.7
20260905110537 74 169 0.0 0.0 0.00 0.00 0.00 1 1014.6
20260905110038 74 169 0.0 0.0 0.00 0.00 0.00 1 1014.5
20260905105538 74 169 0.0 0.0 0.00 0.00 0.00 1 1014.5
20260905105037 74 169 0.0 0.0 0.00 0.00 0.00 1 1014.6
20260905104536 74 169 0.0 0.0 0.00 0.00 0.00 1 1014.6
20260905104035 74 169 0.0 0.0 0.00 0.00 0.00 1 1014.6
20260905103540 74 169 0.0 0.0 0.00 0.00 0.00 1 1014.6
20260905103535 74 169 0.0 0.0 0.00 0.00 0.00 1 1014.5
20260905102534 74 169 0.0 0.0 0.00 0.00 0.00 1 1014.6
20260905102032 74 169 0.0 1.0 0.00 0.00 0.00 1 1014.6
20260905101539 74 169 0.0 2.0 0.00 0.00 0.00 1 1014.6
20260905101531 74 169 0.0 2.0 0.00 0.00 0.00 1 1014.6
20260905101031 74 169 0.0 2.0 0.00 0.00 0.00 1 1014.7
20260905100642 74 169 0.0 2.0 0.00 0.00 0.00 1 1014.6
20260905100531 74 169 0.0 0.0 0.00 0.00 0.00 1 1014.6
20260905095029 74 169 0.0 2.0 0.00 0.00 0.00 1 1014.7
20260905094530 74 169 0.0 0.0 0.00 0.00 0.00 1 1014.6
20260905094029 74 169 0.0 0.0 0.00 0.00 0.00 1 1014.6
20260905093529 74 169 0.0 0.0 0.00 0.00 0.00 1 1014.6
20260905093029 74 169 0.0 0.0 0.00 0.00 0.00 1 1014.5
20260905092529 74 169 0.0 0.0 0.00 0.00 0.00 1 1014.4
20260905092029 74 169 0.0 0.0 0.00 0.00 0.00 1 1014.4
20260905091531 75 169 0.0 0.0 0.00 0.00 0.00 1 1014.4
20260905091527 74 169 0.0 0.0 0.00 0.00 0.00 1 1014.3
20260905090527 75 169 0.0 0.0 0.00 0.00 0.00 1 1014.3
20260905090027 75 169 0.0 0.0 0.00 0.00 0.00 1 1014.2
20260905085527 75 169 0.0 0.0 0.00 0.00 0.00 1 1014.2
20260905085031 75 169 0.0 0.0 0.00 0.00 0.00 1 1014.2
20260905085027 75 169 0.0 0.0 0.00 0.00 0.00 1 1014.2
20260905084027 75 169 0.0 0.0 0.00 0.00 0.00 1 1014.1
20260905083528 75 169 0.0 0.0 0.00 0.00 0.00 1 1014.1
20260905083026 75 169 0.0 0.0 0.00 0.00 0.00 1 1014.0
20260905082525 75 169 0.0 0.0 0.00 0.00 0.00 1 1014.0
20260905082025 75 169 0.0 0.0 0.00 0.00 0.00 1 1014.0
20260905081529 75 169 0.0 0.0 0.00 0.00 0.00 1 1014.0
20260905081525 75 169 0.0 0.0 0.00 0.00 0.00 1 1014.0
20260905080525 75 169 0.0 0.0 0.00 0.00 0.00 1 1014.0
20260905080025 75 169 0.0 0.0 0.00 0.00 0.00 1 1014.0
20260905075529 76 169 0.0 0.0 0.00 0.00 0.00 1 1013.9
20260905075525 75 169 0.0 0.0 0.00 0.00 0.00 1 1014.0
20260905074524 76 169 0.0 0.0 0.00 0.00 0.00 1 1014.0
20260905074025 76 169 0.0 0.0 0.00 0.00 0.00 1 1014.0
20260905073525 76 169 0.0 0.0 0.00 0.00 0.00 1 1014.0
20260905073025 76 169 0.0 0.0 0.00 0.00 0.00 1 1013.9
20260905072524 76 169 0.0 0.0 0.00 0.00 0.00 1 1014.0
20260905072025 76 169 0.0 0.0 0.00 0.00 0.00 1 1014.1
20260905071525 76 169 0.0 0.0 0.00 0.00 0.00 1 1014.1
20260905071024 76 169 0.0 0.0 0.00 0.00 0.00 1 1014.1
20260905070529 76 169 0.0 0.0 0.00 0.00 0.00 1 1014.3
20260905070524 76 169 0.0 0.0 0.00 0.00 0.00 1 1014.2
20260905065524 76 169 0.0 0.0 0.00 0.00 0.00 1 1014.3
20260905065028 76 169 0.0 0.0 0.00 0.00 0.00 1 1014.4
20260905065024 76 169 0.0 0.0 0.00 0.00 0.00 1 1014.3
20260905064627 76 169 0.0 0.0 0.00 0.00 0.00 1 1014.5
20260905063522 76 169 0.0 0.0 0.00 0.00 0.00 1 1014.5
20260905063022 76 169 0.0 0.0 0.00 0.00 0.00 1 1014.5
20260905062522 76 169 0.0 0.0 0.00 0.00 0.00 1 1014.6
20260905062026 76 169 0.0 0.0 0.00 0.00 0.00 1 1014.7
20260905062022 76 169 0.0 0.0 0.00 0.00 0.00 1 1014.6
20260905061626 77 169 0.0 0.0 0.00 0.00 0.00 1 1014.7
20260905060520 77 169 0.0 0.0 0.00 0.00 0.00 1 1014.7
20260905060020 77 169 0.0 0.0 0.00 0.00 0.00 1 1014.8
20260905055520 77 169 0.0 0.0 0.00 0.00 0.00 1 1014.8
20260905055020 77 169 0.0 0.0 0.00 0.00 0.00 1 1014.7
20260905054527 78 169 0.0 0.0 0.00 0.00 0.00 1 1014.6
20260905054521 77 169 0.0 0.0 0.00 0.00 0.00 1 1014.8
20260905054021 77 169 0.0 0.0 0.00 0.00 0.00 1 1014.8
20260905053521 77 169 0.0 0.0 0.00 0.00 0.00 1 1014.8
20260905053021 77 169 0.0 0.0 0.00 0.00 0.00 1 1014.7
20260905052021 78 169 0.0 0.0 0.00 0.00 0.00 1 1014.6
20260905051521 78 169 0.0 0.0 0.00 0.00 0.00 1 1014.7
20260905051021 78 169 0.0 0.0 0.00 0.00 0.00 1 1014.9
20260905050520 78 169 0.0 0.0 0.00 0.00 0.00 1 1014.8
20260905050024 78 169 0.0 0.0 0.00 0.00 0.00 1 1015.0
20260905050020 78 169 0.0 0.0 0.00 0.00 0.00 1 1014.9
20260905045020 78 169 0.0 0.0 0.00 0.00 0.00 1 1015.0
20260905044520 78 169 0.0 0.0 0.00 0.00 0.00 1 1015.0